Time,TemperatureF,DewpointF,PressureIn,WindDirection,WindDirectionDegrees,WindSpeedMPH,WindSpeedGustMPH,Humidity,HourlyPrecipIn,Conditions,Clouds,dailyrainin,SoftwareType,DateUTC
2013-05-17 00:09:00,63.7,42.0,29.98,South,191,0.0,1.0,46,0.00,,,0.00,weatherlink.com 1.10,2013-05-17 04:09:00,
2013-05-17 00:24:00,62.9,43.0,29.98,NNW,338,0.0,1.0,48,0.00,,,0.00,weatherlink.com 1.10,2013-05-17 04:24:00,
2013-05-17 00:39:00,62.1,44.0,29.98,SW,216,0.0,0.0,51,0.00,,,0.00,weatherlink.com 1.10,2013-05-17 04:39:00,
2013-05-17 00:54:00,61.0,44.0,29.99,NNW,329,1.0,2.0,54,0.00,,,0.00,weatherlink.com 1.10,2013-05-17 04:54:00,
2013-05-17 01:09:00,60.2,44.0,29.99,WNW,295,0.0,0.0,56,0.00,,,0.00,weatherlink.com 1.10,2013-05-17 05:09:00,
2013-05-17 01:24:00,59.2,44.0,30.00,ESE,102,0.0,2.0,58,0.00,,,0.00,weatherlink.com 1.10,2013-05-17 05:24:00,
2013-05-17 01:39:00,58.4,44.0,30.00,SSE,148,0.0,1.0,59,0.00,,,0.00,weatherlink.com 1.10,2013-05-17 05:39:00,
2013-05-17 01:54:00,57.7,44.0,30.00,NNW,333,0.0,1.0,60,0.00,,,0.00,weatherlink.com 1.10,2013-05-17 05:54:00,
2013-05-17 02:09:00,57.3,44.0,30.00,WNW,300,0.0,2.0,61,0.00,,,0.00,weatherlink.com 1.10,2013-05-17 06:09:00,
2013-05-17 02:24:00,56.8,44.0,30.00,NW,323,0.0,2.0,62,0.00,,,0.00,weatherlink.com 1.10,2013-05-17 06:24:00,
2013-05-17 02:39:00,56.5,43.0,29.99,South,172,0.0,2.0,61,0.00,,,0.00,weatherlink.com 1.10,2013-05-17 06:39:00,
2013-05-17 02:54:00,56.1,43.0,29.99,SSW,197,0.0,1.0,61,0.00,,,0.00,weatherlink.com 1.10,2013-05-17 06:54:00,
2013-05-17 03:09:00,55.8,42.0,29.99,SE,139,0.0,1.0,61,0.00,,,0.00,weatherlink.com 1.10,2013-05-17 07:09:00,
2013-05-17 03:24:00,55.4,42.0,29.99,East,96,0.0,2.0,60,0.00,,,0.00,weatherlink.com 1.10,2013-05-17 07:24:00,
2013-05-17 03:39:00,55.1,41.0,29.98,South,191,0.0,1.0,60,0.00,,,0.00,weatherlink.com 1.10,2013-05-17 07:39:00,
2013-05-17 03:54:00,54.8,41.0,29.99,NNW,331,0.0,0.0,60,0.00,,,0.00,weatherlink.com 1.10,2013-05-17 07:54:00,
2013-05-17 04:09:00,54.3,40.0,29.99,SSE,155,0.0,0.0,60,0.00,,,0.00,weatherlink.com 1.10,2013-05-17 08:09:00,
2013-05-17 04:25:00,54.1,41.0,30.00,WNW,293,0.0,1.0,61,0.00,,,0.00,weatherlink.com 1.10,2013-05-17 08:25:00,
2013-05-17 04:40:00,53.6,41.0,30.01,SSE,160,0.0,0.0,62,0.00,,,0.00,weatherlink.com 1.10,2013-05-17 08:40:00,
2013-05-17 04:55:00,53.1,41.0,30.01,SSE,160,0.0,0.0,64,0.00,,,0.00,weatherlink.com 1.10,2013-05-17 08:55:00,
2013-05-17 05:10:00,52.8,41.0,30.00,South,169,0.0,1.0,65,0.00,,,0.00,weatherlink.com 1.10,2013-05-17 09:10:00,
2013-05-17 05:25:00,52.6,41.0,30.00,SSE,157,0.0,1.0,65,0.00,,,0.00,weatherlink.com 1.10,2013-05-17 09:25:00,
2013-05-17 05:40:00,52.3,41.0,30.02,SSW,204,0.0,1.0,66,0.00,,,0.00,weatherlink.com 1.10,2013-05-17 09:40:00,
2013-05-17 05:55:00,52.0,41.0,30.03,South,179,0.0,1.0,66,0.00,,,0.00,weatherlink.com 1.10,2013-05-17 09:55:00,
2013-05-17 06:10:00,51.6,41.0,30.02,SE,125,0.0,2.0,67,0.00,,,0.00,weatherlink.com 1.10,2013-05-17 10:10:00,
2013-05-17 06:25:00,51.2,41.0,30.02,SE,127,0.0,0.0,68,0.00,,,0.00,weatherlink.com 1.10,2013-05-17 10:25:00,
2013-05-17 06:40:00,51.0,42.0,30.03,WNW,296,0.0,2.0,70,0.00,,,0.00,weatherlink.com 1.10,2013-05-17 10:40:00,
2013-05-17 07:10:00,50.8,42.0,30.04,SW,236,0.0,1.0,71,0.00,,,0.00,weatherlink.com 1.10,2013-05-17 11:10:00,
2013-05-17 07:25:00,51.1,42.0,30.04,SSW,196,0.0,0.0,70,0.00,,,0.00,weatherlink.com 1.10,2013-05-17 11:25:00,
2013-05-17 07:40:00,51.6,42.0,30.05,SSW,197,0.0,0.0,70,0.00,,,0.00,weatherlink.com 1.10,2013-05-17 11:40:00,
2013-05-17 07:55:00,52.2,43.0,30.05,WNW,291,0.0,0.0,70,0.00,,,0.00,weatherlink.com 1.10,2013-05-17 11:55:00,
2013-05-17 08:10:00,52.9,43.0,30.07,SE,135,1.0,2.0,68,0.00,,,0.00,weatherlink.com 1.10,2013-05-17 12:10:00,
2013-05-17 08:25:00,53.8,43.0,30.07,SE,145,0.0,0.0,67,0.00,,,0.00,weatherlink.com 1.10,2013-05-17 12:25:00,
2013-05-17 08:40:00,54.2,43.0,30.07,SE,138,0.0,0.0,66,0.00,,,0.00,weatherlink.com 1.10,2013-05-17 12:40:00,
2013-05-17 08:55:00,55.0,43.0,30.07,SSE,157,1.0,3.0,64,0.00,,,0.00,weatherlink.com 1.10,2013-05-17 12:55:00,
2013-05-17 09:10:00,55.7,43.0,30.07,WSW,257,0.0,3.0,63,0.00,,,0.00,weatherlink.com 1.10,2013-05-17 13:10:00,
2013-05-17 09:25:00,57.6,44.0,30.07,NW,321,0.0,4.0,61,0.00,,,0.00,weatherlink.com 1.10,2013-05-17 13:25:00,
2013-05-17 09:40:00,60.1,44.0,30.07,NW,319,0.0,2.0,56,0.00,,,0.00,weatherlink.com 1.10,2013-05-17 13:40:00,
2013-05-17 09:55:00,61.6,45.0,30.07,WNW,302,0.0,2.0,54,0.00,,,0.00,weatherlink.com 1.10,2013-05-17 13:55:00,
2013-05-17 10:10:00,63.8,45.0,30.07,SSE,153,1.0,2.0,51,0.00,,,0.00,weatherlink.com 1.10,2013-05-17 14:10:00,
2013-05-17 10:25:00,64.7,45.0,30.07,NW,311,0.0,2.0,49,0.00,,,0.00,weatherlink.com 1.10,2013-05-17 14:25:00,
2013-05-17 10:40:00,66.3,45.0,30.07,SE,127,2.0,4.0,46,0.00,,,0.00,weatherlink.com 1.10,2013-05-17 14:40:00,
2013-05-17 10:55:00,67.5,46.0,30.07,WNW,288,0.0,3.0,47,0.00,,,0.00,weatherlink.com 1.10,2013-05-17 14:55:00,
2013-05-17 11:10:00,67.2,45.0,30.08,NW,308,0.0,2.0,45,0.00,,,0.00,weatherlink.com 1.10,2013-05-17 15:10:00,
2013-05-17 11:25:00,66.4,45.0,30.08,SSE,158,0.0,2.0,46,0.00,,,0.00,weatherlink.com 1.10,2013-05-17 15:25:00,
2013-05-17 11:40:00,65.8,45.0,30.08,SSW,207,0.0,1.0,48,0.00,,,0.00,weatherlink.com 1.10,2013-05-17 15:40:00,
2013-05-17 11:55:00,65.6,46.0,30.08,SSE,153,0.0,1.0,50,0.00,,,0.00,weatherlink.com 1.10,2013-05-17 15:55:00,
2013-05-17 12:10:00,65.4,47.0,30.07,NW,325,0.0,1.0,52,0.00,,,0.00,weatherlink.com 1.10,2013-05-17 16:10:00,
2013-05-17 12:25:00,64.7,46.0,30.08,SSW,208,0.0,1.0,51,0.00,,,0.00,weatherlink.com 1.10,2013-05-17 16:25:00,
2013-05-17 12:40:00,64.4,46.0,30.08,North,7,0.0,0.0,52,0.00,,,0.00,weatherlink.com 1.10,2013-05-17 16:40:00,
2013-05-17 12:55:00,64.0,47.0,30.07,NW,316,0.0,0.0,54,0.00,,,0.00,weatherlink.com 1.10,2013-05-17 16:55:00,
2013-05-17 13:10:00,64.1,47.0,30.08,SSW,198,0.0,2.0,55,0.00,,,0.00,weatherlink.com 1.10,2013-05-17 17:10:00,
2013-05-17 13:25:00,64.2,47.0,30.08,SW,221,0.0,3.0,54,0.00,,,0.00,weatherlink.com 1.10,2013-05-17 17:25:00,
2013-05-17 13:40:00,63.9,47.0,30.07,SSW,201,0.0,2.0,54,0.00,,,0.00,weatherlink.com 1.10,2013-05-17 17:40:00,
2013-05-17 13:55:00,64.6,47.0,30.07,SE,143,0.0,4.0,53,0.00,,,0.00,weatherlink.com 1.10,2013-05-17 17:55:00,
2013-05-17 14:11:00,64.9,47.0,30.07,SSE,164,0.0,2.0,52,0.00,,,0.00,weatherlink.com 1.10,2013-05-17 18:11:00,
2013-05-17 14:26:00,65.5,47.0,30.07,SSW,208,0.0,1.0,51,0.00,,,0.00,weatherlink.com 1.10,2013-05-17 18:26:00,
2013-05-17 14:41:00,67.3,47.0,30.07,SW,235,0.0,1.0,49,0.00,,,0.00,weatherlink.com 1.10,2013-05-17 18:41:00,
2013-05-17 15:11:00,67.5,47.0,30.06,SE,138,0.0,2.0,48,0.00,,,0.00,weatherlink.com 1.10,2013-05-17 19:11:00,
2013-05-17 15:26:00,67.5,47.0,30.06,SW,222,0.0,2.0,48,0.00,,,0.00,weatherlink.com 1.10,2013-05-17 19:26:00,
2013-05-17 15:41:00,68.1,48.0,30.05,SW,222,0.0,2.0,48,0.00,,,0.00,weatherlink.com 1.10,2013-05-17 19:41:00,
2013-05-17 15:56:00,68.5,47.0,30.04,SW,235,0.0,3.0,46,0.00,,,0.00,weatherlink.com 1.10,2013-05-17 19:56:00,
2013-05-17 16:11:00,69.0,47.0,30.04,SE,143,2.0,5.0,46,0.00,,,0.00,weatherlink.com 1.10,2013-05-17 20:11:00,
2013-05-17 16:26:00,69.1,47.0,30.04,SE,134,1.0,3.0,45,0.00,,,0.00,weatherlink.com 1.10,2013-05-17 20:26:00,
2013-05-17 16:41:00,69.2,47.0,30.04,SE,139,1.0,3.0,46,0.00,,,0.00,weatherlink.com 1.10,2013-05-17 20:41:00,
2013-05-17 16:56:00,68.8,47.0,30.04,South,172,0.0,3.0,46,0.00,,,0.00,weatherlink.com 1.10,2013-05-17 20:56:00,
2013-05-17 17:11:00,68.7,48.0,30.03,ENE,64,1.0,3.0,47,0.00,,,0.00,weatherlink.com 1.10,2013-05-17 21:11:00,
2013-05-17 17:26:00,68.1,48.0,30.04,WNW,292,0.0,2.0,49,0.00,,,0.00,weatherlink.com 1.10,2013-05-17 21:26:00,
2013-05-17 17:41:00,67.5,48.0,30.04,NNW,336,0.0,1.0,50,0.00,,,0.00,weatherlink.com 1.10,2013-05-17 21:41:00,
2013-05-17 17:56:00,66.8,47.0,30.05,NNW,344,0.0,0.0,49,0.00,,,0.00,weatherlink.com 1.10,2013-05-17 21:56:00,
2013-05-17 18:11:00,66.3,46.0,30.05,SSE,148,0.0,1.0,49,0.00,,,0.00,weatherlink.com 1.10,2013-05-17 22:11:00,
2013-05-17 18:26:00,65.6,46.0,30.05,WSW,253,0.0,2.0,50,0.00,,,0.00,weatherlink.com 1.10,2013-05-17 22:26:00,
2013-05-17 18:41:00,65.1,45.0,30.05,NE,34,0.0,2.0,49,0.00,,,0.00,weatherlink.com 1.10,2013-05-17 22:41:00,
2013-05-17 18:56:00,64.6,46.0,30.05,SSE,166,0.0,2.0,52,0.00,,,0.00,weatherlink.com 1.10,2013-05-17 22:56:00,
2013-05-17 19:11:00,64.2,47.0,30.06,NW,318,0.0,0.0,54,0.00,,,0.00,weatherlink.com 1.10,2013-05-17 23:11:00,
2013-05-17 19:26:00,63.8,47.0,30.06,WSW,250,0.0,0.0,55,0.00,,,0.00,weatherlink.com 1.10,2013-05-17 23:26:00,
2013-05-17 19:41:00,63.4,47.0,30.06,SW,236,0.0,1.0,56,0.00,,,0.00,weatherlink.com 1.10,2013-05-17 23:41:00,
2013-05-17 19:56:00,63.0,47.0,30.06,SW,214,0.0,1.0,57,0.00,,,0.00,weatherlink.com 1.10,2013-05-17 23:56:00,
2013-05-17 20:11:00,62.7,47.0,30.06,WNW,282,0.0,0.0,57,0.00,,,0.00,weatherlink.com 1.10,2013-05-18 00:11:00,
2013-05-17 20:26:00,62.5,47.0,30.06,North,10,0.0,0.0,58,0.00,,,0.00,weatherlink.com 1.10,2013-05-18 00:26:00,
2013-05-17 20:41:00,62.2,47.0,30.06,WSW,253,0.0,1.0,58,0.00,,,0.00,weatherlink.com 1.10,2013-05-18 00:41:00,
2013-05-17 20:56:00,61.9,47.0,30.06,South,174,0.0,2.0,59,0.00,,,0.00,weatherlink.com 1.10,2013-05-18 00:56:00,
2013-05-17 21:11:00,61.6,47.0,30.06,NNE,14,0.0,1.0,60,0.00,,,0.00,weatherlink.com 1.10,2013-05-18 01:11:00,
2013-05-17 21:26:00,61.1,47.0,30.06,South,190,0.0,3.0,60,0.00,,,0.00,weatherlink.com 1.10,2013-05-18 01:26:00,
2013-05-17 21:41:00,60.7,47.0,30.06,NNW,345,0.0,4.0,60,0.00,,,0.00,weatherlink.com 1.10,2013-05-18 01:41:00,
2013-05-17 21:56:00,60.5,47.0,30.06,West,273,1.0,1.0,61,0.00,,,0.00,weatherlink.com 1.10,2013-05-18 01:56:00,
2013-05-17 22:11:00,60.2,47.0,30.06,SSE,150,0.0,1.0,61,0.00,,,0.00,weatherlink.com 1.10,2013-05-18 02:11:00,
2013-05-17 22:26:00,59.9,46.0,30.07,North,1,0.0,1.0,61,0.00,,,0.00,weatherlink.com 1.10,2013-05-18 02:26:00,
2013-05-17 22:41:00,59.7,46.0,30.07,SSE,166,0.0,0.0,62,0.00,,,0.00,weatherlink.com 1.10,2013-05-18 02:41:00,
2013-05-17 22:56:00,59.6,46.0,30.07,WSW,256,0.0,2.0,62,0.00,,,0.00,weatherlink.com 1.10,2013-05-18 02:56:00,
2013-05-17 23:11:00,59.5,46.0,30.07,North,8,0.0,2.0,62,0.00,,,0.00,weatherlink.com 1.10,2013-05-18 03:11:00,
2013-05-17 23:26:00,59.4,47.0,30.08,East,79,0.0,0.0,63,0.00,,,0.00,weatherlink.com 1.10,2013-05-18 03:26:00,
2013-05-17 23:41:00,59.3,47.0,30.08,SSE,166,0.0,0.0,63,0.00,,,0.00,weatherlink.com 1.10,2013-05-18 03:41:00,
2013-05-17 23:56:00,59.2,46.0,30.08,SW,226,0.0,2.0,63,0.00,,,0.00,weatherlink.com 1.10,2013-05-18 03:56:00,